Flag for Thailand Weather past 2 weeks in Khon Kaen, Thailand

Now
77 °F

Passing clouds.


Feels Like: 78 °F
Forecast: 75 / 88 °F
Wind: 3 mph from Southwest

Location: Khon Kaen Airport

Current Time: Sep 23, 2014 at 3:56:40 AM

Latest Report: Sep 23, 2014 at 3:00 AM


Visibility: N/A

Pressure: 29.77 "Hg

Humidity: 89%

Dew point: 73 °F

Location of Khon KaenLocation

Historic Weather in Khon Kaen — Graph

°F

Khon Kaen temperature yesterday

Maximum temperature yesterday: 86 °F (at 3:00 PM)
Minimum temperature yesterday: 75 °F (at 7:00 AM)
Average temperature yesterday: 80 °F

Past Weeks' High & Low Weather Summary

 TemperatureHumidityPressure
High93 °F (Sep 8, 2:00 PM)100% (Sep 10, 7:00 AM)29.89 "Hg (Sep 10, 7:00 AM)
Low73 °F (Sep 14, 7:00 PM)49% (Sep 8, 2:00 PM)29.45 "Hg (Sep 16, 5:00 PM)
Average82 °F80%29.73 "Hg
* Reported Sep 8 2:00 AM — Sep 23 2:00 AM, Khon Kaen, Weather by CustomWeather, © 2014

Note: Actual official high and low records may vary slightly from our data, if they occured in-between our weather recording intervals... More about our weather records

Advertising

Khon Kaen weather history for previous 24 hours

 ConditionsComfort  
Time TempWeatherWind HumidityBarometerVisibility
2:00 AM
Sep 23
77 °FPassing clouds.2 mph89%29.77 "HgN/A
1:00 AM79 °FPartly cloudy.3 mph89%29.77 "HgN/A
12:00 AM79 °FPartly cloudy.3 mph89%29.80 "HgN/A
11:00 PM
Sep 22
79 °FPartly cloudy.3 mph89%29.80 "HgN/A
10:00 PM81 °FPassing clouds.2 mph89%29.83 "HgN/A
9:00 PM81 °FPassing clouds.3 mph89%29.80 "HgN/A
8:00 PM81 °FPartly cloudy.2 mph84%29.77 "HgN/A
7:00 PM81 °FPartly cloudy.2 mph84%29.77 "HgN/A
6:00 PM82 °FBroken clouds.1 mph79%29.74 "HgN/A
5:00 PM84 °FBroken clouds.No wind74%29.74 "HgN/A
4:00 PM86 °FPartly sunny.2 mph66%29.77 "HgN/A
3:00 PM86 °FPartly sunny.1 mph66%29.77 "HgN/A
2:00 PM84 °FBroken clouds.3 mph74%29.77 "HgN/A
1:00 PM84 °FBroken clouds.2 mph70%29.80 "HgN/A
12:00 PM82 °FPartly sunny.3 mph74%29.83 "HgN/A
11:00 AM82 °FPartly sunny.3 mph74%29.83 "HgN/A
10:00 AM81 °FPartly sunny.5 mph79%29.83 "HgN/A
8:00 AM77 °FBroken clouds.7 mph83%29.83 "HgN/A
7:00 AM75 °FBroken clouds.3 mph89%29.80 "HgN/A
6:00 AM77 °FPartly sunny.6 mph79%29.80 "HgN/A
5:00 AM77 °FPartly cloudy.8 mph89%29.80 "HgN/A
4:00 AM77 °FPartly cloudy.5 mph89%29.77 "HgN/A
3:00 AM77 °FPartly cloudy.5 mph89%29.80 "HgN/A
Weather by CustomWeather, © 2014

See weather overviewHow to use our weather pages